This is the latest recevied weather packets stored in our database for station/object F4ETJ-1. If no packets are shown the sender has not sent any weather packets the latest 1 day(s).
| Time | Temp. | Humidity | Pressure | Rain* | Wind** | Luminosity | Snow |
|---|---|---|---|---|---|---|---|
| 1778064059 | 12.78° C | 90% | 1007.9 hPa | 0.25 mm | - | - | - |
| 1778063339 | 13.33° C | 89% | 1007.9 hPa | 0.25 mm | - | - | - |
| 1778062978 | 13.33° C | 89% | 1007.9 hPa | 0 mm | - | - | - |
| 1778062618 | 13.33° C | 89% | 1007.9 hPa | 0 mm | - | - | - |
| 1778061897 | 13.33° C | 89% | 1007.9 hPa | 0 mm | - | - | - |
| 1778061176 | 13.33° C | 90% | 1007.8 hPa | 0 mm | - | - | - |
| 1778060816 | 13.33° C | 90% | 1007.7 hPa | 0 mm | - | - | - |
| 1778060456 | 13.33° C | 90% | 1007.6 hPa | 0 mm | - | - | - |
| 1778060095 | 13.33° C | 92% | 1007.6 hPa | 0 mm | - | - | - |
| 1778059735 | 13.33° C | 92% | 1007.5 hPa | 0 mm | - | - | - |
| 1778057573 | 12.78° C | 95% | 1007.2 hPa | 0.51 mm | - | - | - |
| 1778057212 | 12.78° C | 95% | 1007.2 hPa | 0.51 mm | - | - | - |
| 1778056852 | 12.22° C | 95% | 1007.2 hPa | 0.51 mm | - | - | - |
| 1778056492 | 12.78° C | 95% | 1007.2 hPa | 0.51 mm | - | - | - |
| 1778056132 | 12.22° C | 95% | 1007.1 hPa | 0.76 mm | - | - | - |
| 1778055050 | 12.22° C | 95% | 1007.1 hPa | 1.52 mm | - | - | - |
| 1778054330 | 12.22° C | 95% | 1007.1 hPa | 2.03 mm | - | - | - |
| 1778053609 | 12.22° C | 95% | 1007 hPa | 2.54 mm | - | - | - |
| 1778053249 | 12.22° C | 95% | 1007 hPa | 3.05 mm | - | - | - |
| 1778052532 | 11.67° C | 95% | 1006.9 hPa | 2.79 mm | - | - | - |
| 1778052168 | 11.67° C | 95% | 1006.9 hPa | 2.54 mm | - | - | - |
| 1778051807 | 11.67° C | 95% | 1006.9 hPa | 2.54 mm | - | - | - |
| 1778051087 | 11.11° C | 95% | 1006.9 hPa | 2.29 mm | - | - | - |
| 1778050726 | 11.11° C | 95% | 1006.9 hPa | 2.03 mm | - | - | - |
| 1778050366 | 11.11° C | 94% | 1006.8 hPa | 1.78 mm | - | - | - |
* Rain latest hour (hover to see other rain measurements)
** Current wind speed in m/s (hover to see current wind gust speed)